User: anonymous   Login
Location: Cutler
(25.6150°N, 80.3110°W)
Time: 00:11:24
(UTC-04:00)
Language:

Tiangong 2 - Orbit

View from above orbital plane
View from above orbital plane
View from above satellite
View from above satellite

Ground track
Ground track

The orbit data is extracted from the following two-line orbital elements,

1 41765U 16057A   18168.59471944 +.00031352 +86302-5 +95298-4 0  9994
2 41765 042.7854 339.1938 0004261 295.8297 155.1135 15.92613420100067
Epoch (UTC): 17 June 2018 14:16:23
Eccentricity: 0.0004261
inclination: 42.7854°
perigee height: 292 km
apogee height: 298 km
right ascension of ascending node: 339.1938°
argument of perigee: 295.8297°
revolutions per day: 15.92613420
mean anomaly at epoch: 155.1135°
orbit number at epoch: 10006

The dashed part of the orbit path shows where the satellite is in the earth's shadow,  

DLR